Regional Weather Roundup
Issued by NWS

Home | Current Version | Previous Version | Graphics & Text | Print | Product List | Glossary On
Versions: 1 2 3 4 5 6 7 8 9 10 11 12 13 14 15 16 17 18 19 20 21 22 23 24 25 26 27 28 29 30 31 32 33 34 35 36 37 38 39 40 41 42 43 44 45 46 47 48 49 50
000
ASUS43 KBIS 042220
RWRND

NORTH DAKOTA REGIONAL WEATHER ROUNDUP
NATIONAL WEATHER SERVICE BISMARCK ND
500 PM CDT MON MAY 04 2015

NOTE: "FAIR" INDICATES FEW OR NO CLOUDS BELOW 12,000 FEET WITH NO
SIGNIFICANT WEATHER AND/OR OBSTRUCTIONS TO VISIBILITY.


NDZ001>003-009>011-017-042300-
NORTHWEST NORTH DAKOTA

CITY           SKY/WX    TMP DP  RH WIND       PRES   REMARKS
WILLISTON      MOSUNNY   72  32  23 S15G26    30.03F
MINOT          SUNNY     71  24  17 SE13      30.09F
MINOT AFB      SUNNY     73  25  16 S9G18     30.08F
$$

NDZ018>021-031>035-040>046-042300-
SOUTHWEST NORTH DAKOTA

CITY           SKY/WX    TMP DP  RH WIND       PRES   REMARKS
BISMARCK       SUNNY     69  25  19 SE13      30.15F
DICKINSON      SUNNY     62  36  37 S26G35    30.10F
GARRISON         N/A     69  28  21 S16       30.11F
HETTINGER ARPT CLOUDY    55  37  50 S18G25    30.16F
$$

NDZ004>008-012>016-024-026-027-054-042300-
NORTHEAST NORTH DAKOTA

CITY           SKY/WX    TMP DP  RH WIND       PRES   REMARKS
GRAND FORKS    MOSUNNY   69  25  19 CALM      30.16F
GRND FRKS AFB  SUNNY     69  23  17 NW12      30.16F
DEVILS LAKE    SUNNY     66  25  20 S3        30.15F
$$

NDZ022-023-025-028>030-036>039-047>053-042300-
SOUTHEAST NORTH DAKOTA

CITY           SKY/WX    TMP DP  RH WIND       PRES   REMARKS
FARGO          MOSUNNY   69  27  20 SW8       30.17F
JAMESTOWN      MOSUNNY   67  24  19 SE10      30.16F
$$




USA.gov is the U.S. government's official web portal to all federal, state and local government web resources and services.